www.pogodaiklimat.ru

Погода и климат >> Архив погоды >> Россия >> Забайкальский край >> Хилок


АРХИВ ПОГОДЫ в Хилке

Время (UTC), дата Ветер
(напр.,м/с)
 
Видим.   Явления Облачность Т
(С)
Тd
(С)
f
(%)
Тe
(С)
Тes
(С)
Комфортность P
(гПа)
Po
(гПа)
Тmin
(С)
Tmax
(С)
R
(мм)
R24
(мм)
S
(см)
18 11.08 З 4 20 км слаб. дождь 10/10 600 м
[Sc]
+16.8 +14.6 87 +16 +16 1005.7 916.4
21 11.08 З 6 20 км слаб. дождь 10/10 600 м
[Sc]
+13.5 +11.2 86 +11 +11 1007.8 917.2
00 12.08 З 2 20 км слаб. дождь 10/10 600 м
[Sc]
+12.0 +10.3 89 +11 +11 1009.8 918.6 +11.9 6
03 12.08 З 6 50 км {дождь} 8/6 600 м
[Cu Sc Ci fib]
+11.9 +8.9 82 +9 +11 1010.6 919.3 +11.8
06 12.08 З 4 50 км {дождь} 8/6 600 м
[Cu Sc Ci fib]
+13.7 +9.1 74 +12 +15 1010.4 919.6
09 12.08 З 3 50 км 8/6 600 м
[Cb calv Ci fib]
+15.5 +8.7 64 +15 +16 1009.0 918.9
12 12.08 З 3 50 км 8/8 600 м
[Sc]
+14.6 +8.1 65 +14 +14 1009.8 919.3 +15.9 0.4
15 12.08 ЮЗ 1 50 км 6/4 1000 м
[Cu Sc Ci fib]
+9.1 +7.7 91 +8 +8 1012.5 920.0
18 12.08 З 1 50 км 4/0
[Ci fib]
+6.1 +5.0 93 +5 +5 1013.7 920.1
21 12.08 З 1 50 км 3/0
[Ci fib]
+4.1 +3.2 94 +3 +3 1014.3 920.0
00 13.08 штиль 0 500 м туман ?/? +6.1 +5.3 95 +5 +5 1014.0 920.4 +3.9
03 13.08 ЮВ 1 50 км в посл. час туман 4/4 1000 м
[Cu med, cong]
+16.8 +8.2 57 +18 +26 1008.9 919.1
06 13.08 ЮЗ 1 50 км {туман} 8/6 600 м
[Cb cap Ci fib]
+20.3 +8.2 46 +23 +28 комфорт 1005.9 917.4
09 13.08 В 1 50 км 9/8 600 м
[Cb calv Ci fib]
+19.2 +8.4 50 +21 +22 комфорт 1004.3 915.6
12 13.08 ЮЗ 2
{11}
50 км {гроза, ливн. осадки} 9/8 600 м
[Cb calv Ci fib]
+12.1 +10.3 89 +11 +11 1008.6 917.5 +21.0 2
15 13.08 В 1 50 км {ливн. осадки} 8/6 600 м
[Cu Sc Ci fib]
+11.2 +10.0 92 +11 +11 1009.0 917.6
18 13.08 ЮЗ 1 50 км {ливн. осадки} 8/6 600 м
[Cu Sc Ci fib]
+10.9 +9.8 93 +10 +10 1008.7 917.2
21 13.08 З 2 50 км 8/6 600 м
[Sc Ci fib]
+10.9 +9.6 92 +9 +9 1008.5 917.0
00 14.08 СЗ 3 50 км 8/4 1000 м
[Cu Sc Ci fib]
+11.4 +8.9 85 +10 +11 1009.4 918.0 +10.7 2
03 14.08 З 4 50 км 6/4 1000 м
[Cu Sc Ci fib]
+15.2 +8.3 63 +14 +19 1007.7 917.5
06 14.08 З 4 50 км 6/6 600 м
[Cb calv]
+18.9 +8.3 50 +19 +23 1005.4 916.5
09 14.08 З 2 50 км 4/3 1000 м
[Cb calv Ci fib]
+20.2 +7.2 43 +22 +25 комфорт 1004.1 915.7
12 14.08 З 2 50 км 4/3 1000 м
[Cu Sc Ci fib]
+14.1 +9.8 75 +14 +14 1006.8 916.4 +20.4
15 14.08 З 3 50 км ясно +9.5 +7.3 86 +7 +7 1009.9 917.7
18 14.08 З 1 50 км ясно +6.6 +5.3 91 +5 +5 1011.7 918.5
21 14.08 СЗ 2 500 м туман ?/? +5.2 +4.3 94 +2 +2 1013.8 919.9
00 15.08 З 2 50 км {туман} 6/0
[Ac trans]
+8.8 +6.9 88 +7 +9 1013.5 920.8 +4.5
03 15.08 З 3 50 км 4/3 1000 м
[Cu med, cong Ci fib]
+16.2 +8.5 60 +16 +23 1010.6 920.5
06 15.08 СЗ 4 50 км 6/6 600 м
[Cb calv]
+19.8 +7.5 45 +21 +24 комфорт 1008.4 919.5
09 15.08 СЗ 3
{10}
50 км {ливн. осадки} 6/6 600 м
[Cb calv]
+19.4 +7.6 46 +20 +22 1008.8 919.8
12 15.08 З 3
{10}
50 км {ливн. осадки} 6/6 600 м
[Cb calv]
+14.3 +8.2 67 +13 +13 1011.1 920.3 +20.6 0.0
15 15.08 штиль 0 50 км 4/3 1000 м
[Cu Sc Ci fib]
+9.5 +7.1 85 +9 +9 1013.1 920.7
18 15.08 З 2 50 км 3/3 1000 м
[Cu Sc]
+6.1 +4.9 92 +4 +4 1015.0 921.3
21 15.08 З 1 50 км 3/3 1000 м
[Cu Sc]
+4.0 +3.1 94 +2 +2 1016.0 921.5
00 16.08 З 1 500 м туман ?/? +7.1 +6.3 95 +6 +6 1014.8 921.5 +3.0
03 16.08 З 4 50 км {туман} 4/3 1000 м
[Cu hum Ci fib]
+15.9 +8.4 61 +15 +21 1011.4 921.1
06 16.08 З 2 50 км {туман} 6/4 1000 м
[Cu med, cong Ci fib]
+19.1 +7.2 46 +20 +27 1008.7 919.5
09 16.08 СЗ 2 50 км 6/6 600 м
[Cb calv]
+21.4 +5.9 36 +22 +24 комфорт 1007.2 918.8
12 16.08 З 2 50 км 4/3 1000 м
[Cu Sc Ci fib]
+14.4 +10.1 75 +14 +14 1009.5 919.0 +21.4
15 16.08 З 1 50 км 4/0
[Ci fib]
+10.0 +7.6 85 +10 +10 1011.4 919.3
18 16.08 В 1 50 км 3/0
[Ci fib]
+5.1 +3.9 92 +4 +4 1013.1 919.2
21 16.08 Ю 1 50 км 4/0
[Ci fib]
+5.2 +4.3 94 +4 +4 1013.0 919.2
00 17.08 В 1 500 м туман ?/? +6.0 +5.2 95 +5 +5 1012.6 919.1 +5.0
03 17.08 ЮВ 1 50 км в посл. час туман 4/4 1000 м
[Cb calv]
+16.7 +10.2 65 +18 +26 1007.0 917.4
06 17.08 З 2 50 км {туман} 8/6 600 м
[Cb calv Ci fib]
+21.3 +7.9 42 +22 +27 комфорт 1003.8 915.8
09 17.08 ЮЗ 2 50 км 8/6 600 м
[Cb calv Ci fib]
+19.2 +11.9 63 +21 +22 комфорт 1003.5 914.9
12 17.08 З 1 50 км 8/6 600 м
[Cb calv Ci fib]
+16.0 +12.1 78 +17 +17 1004.8 915.3 +22.0
15 17.08 штиль 0 50 км 6/6 600 м
[Cu Sc]
+13.1 +11.2 88 +13 +13 1006.4 915.8
18 17.08 З 2 50 км 8/6 600 м
[Cu Sc Ci fib]
+11.6 +9.3 86 +10 +10 1007.6 916.4
21 17.08 ЮЗ 1 50 км 8/6 600 м
[Cb calv Ci fib]
+11.4 +9.0 85 +11 +11 1008.4 917.1
00 18.08 З 2 50 км 8/6 600 м
[Cu Sc Ci fib]
+12.7 +10.0 84 +12 +13 1009.2 918.2 +10.9
03 18.08 СЗ 2 50 км 6/6 600 м
[Cu Sc]
+16.2 +11.0 71 +16 +21 1008.9 919.0
06 18.08 З 3 50 км 8/8 600 м
[Cb calv]
+17.6 +10.5 63 +18 +20 1007.8 918.4
09 18.08 З 5 50 км 8/8 600 м
[Cb calv]
+18.2 +10.3 60 +18 +18 1007.3 918.1
12 18.08 З 2 50 км 6/6 600 м
[Cu Sc]
+15.1 +10.7 75 +15 +15 1009.0 918.7 +18.8

 

Местоположение метеостанции Хилок (Забайкальский край, Россия): широта 51.37 долгота 110.40 высота над уровнем моря 802 м.

В архиве по умолчанию представлена погода в Хилке за последнюю неделю. Архивные данные за месяц целиком и за предыдущие месяцы, начиная с января 2011 года, Вы можете получить, выбрав интересующий диапазон дат из раскрывающегося списка и нажав кнопку "Ввод!".


*Определитесь, кто Вы:
робот инопланетянин человек

Внимание! Время в таблицах - всемирное. Для получения местного времени необходимо прибавить поправку, которая равна 9 ч.

Смотрите также архив погоды в соседних городах и на ближайших метеорологических станциях:

Погода в Черемхово (Забайкальский край, Россия) (90 км)
Погода в Хоринске (Бурятия, Россия) (101 км)
Погода в Петровском Заводе (Забайкальский край, Россия) (111 км)
Погода в Могзоне (Забайкальский край, Россия) (118 км)
Погода в Усть-Зазе (Бурятия, Россия) (129 км)
Погода в Улетах (Забайкальский край, Россия) (139 км)
Погода в Сосново-Озерском (Бурятия, Россия) (149 км)
Погода в Новой Курбе (Бурятия, Россия) (150 км)
Погода в Замокте (Бурятия, Россия) (159 км)
Погода в Красном Чикое (Забайкальский край, Россия) (163 км)

Пояснения к столбцам:

Ветер - указаны скорость ветра в м/с - средняя за 10 мин, порывы в срок и между сроками (в фигурных скобках) и направление, откуда дует ветер: С - северный, СВ - северо-восточный, В - восточный, ЮВ - юго-восточный, Ю - южный, ЮЗ - юго-западный, З - западный, СЗ - северо-западный.
Видимость - горизонтальная дальность видимости в метрах или километрах. При видимости от 1 до 10 км при отсутствии осадков обычно наблюдается дымка, при ухудшении видимости до 1 км и менее - туман. В сухую погоду видимость может ухудшаться дымом, пылью или мглою.
Явления - указаны атмосферные явления, наблюдавшиеся в срок или в последний час перед сроком; фигурными скобками обозначены явления, наблюдавшиеся между сроками (за 1-3 часа до срока); квадратными скобками обозначены град или гололедные отложения с указанием их диаметра в мм.
Облачность - указаны через наклонную черту общая и нижняя облачность в баллах и высота нижней границы облаков в метрах; квадратными скобками обозначены формы облаков: Ci - перистые, Cs - перисто-слоистые, Cc - перисто-кучевые, Ac - высококучевые, As - высокослоистые, Sc - слоисто-кучевые, Ns - слоисто-дождевые, Cu - кучевые, Cb - кучево-дождевые. Подробнее классификацию облаков см. в Атласе облаков (PDF).
T - Температура воздуха - температура, измеренная на высоте 2 м над землей.
Td - Температура точки росы - температура, при понижении до которой содержащийся в воздухе водяной пар достигнет насыщения.
f - Относительная влажность воздуха - влажноcть воздуха, измеренная на высоте 2 м над землей.
Te - Эффективная температура - температура, которую ощущает одетый по сезону человек в тени. Характеристика душности погоды. При расчете учитывается влияние влажности воздуха и скорости ветра на теплоощущения человека.
Tes - Эффективная температура на солнце - температура, которую ощущает человек, с поправкой на солнечный нагрев. Характеристика знойности погоды. Зависит от высоты солнца над горизонтом, облачности и скорости ветра. Ночью, в пасмурную погоду, а также при ветре 12 м/с и более поправка равна нулю.
P - Атмосферное давление - приведенное к уровню моря атмосферное давление.
Po - Атмосферное давление - измеренное на уровне метеостанции атмосферное давление.
Tmin - Минимальная температура - минимум температуры воздуха на высоте 2 м над землей.
Tmax - Максимальная температура - максимум температуры воздуха на высоте 2 м над землей.
R - Количество осадков - Количество выпавших осадков за период времени, мм. При наведении курсора мыши на число - период времени, за который выпало указанное количество осадков.
R24 - Количество осадков - Количество выпавших осадков за 24 часа, мм.
S - Снежный покров - Высота снежного покрова, см. При наведении курсора мыши на число - состояние снежного покрова и степень покрытия местности в баллах.